Regional Weather Roundup
Issued by NWS

Home | Current Version | Previous Version | Graphics & Text | Print | Product List | Glossary On
Versions: 1 2 3 4 5 6 7 8 9 10 11 12 13 14 15 16 17 18 19 20 21 22 23 24 25 26 27 28 29 30 31 32 33 34 35 36 37 38 39 40 41 42 43 44 45 46 47 48 49 50
400
ASUS43 KMPX 230110
RWRMN
WEATHER ROUNDUP FOR MINNESOTA
NATIONAL WEATHER SERVICE TWIN CITIES/CHANHASSEN MN
800 PM CDT THU JUN 22 2017


NOTE: "FAIR" INDICATES FEW OR NO CLOUDS BELOW 12,000 FEET WITH NO
SIGNIFICANT WEATHER AND/OR OBSTRUCTIONS TO VISIBILITY. N/A MEANS
CURRENT SKY AND/OR WEATHER CONDITIONS ARE NOT AVAILABLE.

MNZ060>063-068>070-230200-
   Twin Cities Metro

CITY           SKY/WX    TMP DP  RH WIND       PRES   REMARKS
TWIN CITIES    MOCLDY    70  62  76 NW6       29.74R
ST PAUL        MOCLDY    70  64  81 NW7       29.74R
CRYSTAL        CLOUDY    70  56  61 W5        29.73S
BLAINE         MOCLDY    73  57  56 W5        29.74S
LAKEVILLE      CLOUDY    66  66 100 NW3       29.74S
EDEN PRAIRIE   CLOUDY    70  62  76 NW7       29.74R
SOUTH ST PAUL  CLOUDY    69  65  85 W3        29.74R
LAKE ELMO      FAIR      68  64  88 NW5       29.75S
$$
MNZ001>005-007-008-013>017-022>024-027-028-230200-
   Northwest Minnesota

CITY           SKY/WX    TMP DP  RH WIND       PRES   REMARKS
BEMIDJI        SUNNY     69  37  31 W14G25    29.70S
HALLOCK        CLOUDY    64  43  45 W13       29.63F
ROSEAU           N/A     64  48  55 W13G18    29.63R
WARROAD        MOSUNNY   66  48  52 W12G17    29.62R
THIEF RVR FALL CLOUDY    68  41  37 W10       29.68S
CROOKSTON      CLOUDY    70  41  35 W17       29.68F
FOSSTON        SUNNY     66  41  39 W10       29.71S
DETROIT LAKES  SUNNY     72  36  26 W15G23    29.75S
MOORHEAD       SUNNY     73  36  25 W14       29.73S
PARK RAPIDS    MOSUNNY   72  40  31 W10       29.72R
MAHNOMEN       FAIR      65  43  44 W10       29.72S
$$
MNZ006-009>011-018-025>026-230200-
   North Central Minnesota

CITY           SKY/WX    TMP DP  RH WIND       PRES   REMARKS
BAUDETTE       MOSUNNY   68  39  34 W13G26    29.61R
FLAG ISLAND    MOSUNNY   64  43  45 W13       29.58F
INTL FALLS     MOSUNNY   68  37  32 W10G20    29.61R
WASKISH        MOSUNNY   70  46  43 W13G18    29.66S
BIG FORK       SUNNY     70  39  32 W8        29.67R
LONGVILLE      MOSUNNY   72  45  37 W6        29.70R
GRAND RAPIDS   CLOUDY    72  44  36 NW16G26   29.70R
CRANE LAKE     PTCLDY    68  43  40 SW3       29.64S
ORR            CLEAR     70  34  26 W8G18     29.63R
COOK           CLEAR     70  45  40 W12G17    29.66R
WALKER         MOCLDY    69  42  37 W8        29.70S
$$
MNZ012-019>021-037-230200-
   Northeast Minnesota

CITY           SKY/WX    TMP DP  RH WIND       PRES   REMARKS
DULUTH         PTCLDY    71  50  47 W9        29.67S
ELY            LGT RAIN  63  45  51 SW13G33   29.65S
HIBBING        PTCLDY    68  50  52 W7        29.66S
EVELETH        PTCLDY    70  37  29 W6        29.67S
DULUTH HARBOR  CLEAR     73  57  56 SW15      29.65S
TWO HARBORS    CLOUDY    72  55  56 W5        29.63S
SILVER BAY     LGT RAIN  66  54  63 NW3G23    29.66R
GRAND MARAIS     N/A     50  45  83 SW12      29.61S
G MARAIS ARPRT MOCLDY    66  39  37 W12G24    29.68R
$$
MNZ029>031-032-039>041-046>048-054>057-064-230200-
   West Central Minnesota

CITY           SKY/WX    TMP DP  RH WIND       PRES   REMARKS
FERGUS FALLS   SUNNY     72  45  37 NW14      29.72S
WHEATON        MOSUNNY   73  41  31 NW7       29.77S
MORRIS         MOSUNNY   72  55  56 SW10      29.75S
ALEXANDRIA     MOSUNNY   69  57  65 SW10      29.77R
ELBOW LAKE     FAIR      73  44  35 NW10G22   29.76R
WADENA         MOSUNNY   72  45  37 W7        29.74R
GLENWOOD       MOSUNNY   70  57  64 SW10      29.78R
APPLETON       SUNNY     72  54  53 SW8       29.77R
BENSON         SUNNY     72  54  53 W7        29.79R
ORTONVILLE     MOSUNNY   72  55  56 S5        29.77S
MADISON        SUNNY     73  54  49 SW7       29.78S
WILLMAR        FAIR      72  54  53 W5        29.79R
$$
MNZ033>034-036-042>043-049>051-058-059-230200-
   Central Minnesota

CITY           SKY/WX    TMP DP  RH WIND       PRES   REMARKS
ST CLOUD       CLEAR     72  51  47 W9        29.75R
SAUK CENTRE    FAIR      69  57  64 SW12      29.77R
PAYNESVILLE    SUNNY     68  52  56 W7        29.78R
AITKIN         PTCLDY    72  50  46 SW8       29.69S
PINE RIVER     PTSUNNY   73  48  40 W8        29.75R
BRAINERD       MOSUNNY   73  48  41 W12       29.72R
STAPLES        MOSUNNY   72  46  40 W8        29.73R
LONG PRAIRIE   FAIR      68  55  64 S8        29.76R
LITTLE FALLS   SUNNY     68  54  60 SW9       29.74S
LITCHFIELD     PTCLDY    70  57  64 CALM      29.77R
BUFFALO        CLEAR     70  56  60 CALM      29.76S
MAPLE LAKE     PTCLDY    70  56  61 CALM      29.76R
HUTCHINSON     CLOUDY    70  57  63 NW6       29.78R
$$
MNZ037-044-045-052-053-230200-
   East Central Minnesota

CITY           SKY/WX    TMP DP  RH WIND       PRES   REMARKS
PRINCETON      CLEAR     72  55  56 W3        29.74S
MORA           CLEAR     70  52  52 W6        29.75R
CAMBRIDGE      CLEAR     72  55  56 CALM      29.72R
RUSH CITY      CLEAR     68  52  56 W3        29.73R
MOOSE LAKE     CLEAR     70  54  56 SW10      29.68S
HINCKLEY       FAIR      70  52  52 SW6       29.72S
CLOQUET        LGT RAIN  70  46  43 W12       29.70R
MCGREGOR       MOCLDY    68  54  60 W3        29.70S
$$
MNZ071>073-080-081-089-090-097-098-230200-
   Southwest Minnesota

CITY           SKY/WX    TMP DP  RH WIND       PRES   REMARKS
MONTEVIDEO     SUNNY     70  57  64 W3        29.78S
GRANITE FALLS  MOSUNNY   73  55  52 W3        29.80R
CANBY          SUNNY     67  56  67 CALM      29.80S
MARSHALL       PTSUNNY   70  55  60 NW6       29.79S
REDWOOD FALLS  CLOUDY    69  57  65 NW7       29.77R
OLIVIA         MOCLDY    70  57  64 NW5       29.77S
PIPESTONE      CLOUDY    70  48  46 N6        29.81S
WINDOM         CLOUDY    66  57  72 N10       29.79R
WORTHINGTON    CLOUDY    67  56  67 N14       29.80R
JACKSON        CLOUDY    68  59  73 N9        29.78R
TRACY          CLOUDY    67  57  68 NW6       29.80S
SLAYTON        MOSUNNY   65  52  60 N9        29.81R
$$
MNZ065>067-074>077-082>085-091>093-230200-
   South Central Minnesota

CITY           SKY/WX    TMP DP  RH WIND       PRES   REMARKS
MANKATO        CLOUDY    67  63  87 N9        29.75S
NEW ULM        CLOUDY    68  52  56 N12       29.77R
ST JAMES       CLOUDY    68  59  73 NW13      29.77S
FAIRMONT       CLOUDY    68  62  81 N15       29.75R
GLENCOE        CLOUDY    67  61  78 NW3       29.76R
FARIBAULT      CLOUDY    66  64  94 N7        29.74F
OWATONNA       CLOUDY    66  64  94 N8        29.75R
WASECA         CLOUDY    64  61  88 N6        29.76R
ALBERT LEA     CLOUDY    70  64  83 N9        29.73S
$$
MNZ078>079-086>088-094>096-230200-
   Southeast Minnesota

CITY           SKY/WX    TMP DP  RH WIND       PRES   REMARKS
ROCHESTER      CLOUDY    68  67  96 N8        29.74R
RED WING       CLOUDY    68  63  83 CALM      29.72S
STANTON        CLOUDY    68  64  89 N7        29.73S
DODGE CENTER   CLOUDY    68  64  88 N5        29.74R
WINONA         CLOUDY    70  68  94 NW5       29.72S
AUSTIN         LGT RAIN  68  64  88 N8        29.72S
PRESTON        CLOUDY    68  65  91 NE3       29.73R
$$
ABBREVIATIONS USED IN REMARKS
   TC - TEMPERATURES IN CELSIUS
  WCI - WIND CHILL INDEX
   HX - HEAT INDEX
  VSB - VISIBILITY
$$




USA.gov is the U.S. government's official web portal to all federal, state and local government web resources and services.